Location: Obersdorf
(47.4079°N, 10.2781°E)
Time: 02:49:34
(UTC+02:00)

COSMOS 2251 DEB - Pass Details

Date: 08 July 2022
Orbit: 490 x 568 km, 73.9° (Epoch: 16 August)

Event Time Altitude Azimuth Distance (km) Brightness Sun altitude
Exits shadow 03:13:56 11° 148° (SSE) 1,780 ? -15.8°
Maximum altitude 03:16:47 21° 101° (E) 1,280 ? -15.6°
Drops below altitude 10° 03:19:50 10° 52° (NE) 1,818 ? -15.4°
Sets 03:22:23 0° 36° (NE) 2,698 ? -15.2°
